Location: Cronhütte
(48.9135°N, 9.6869°E)
Time: 15:45:27
(UTC+00:00)

FORMOSAT 3E - Pass Details

Date: 30 April 2025
Orbit: 742 x 834 km, 72.0° (Epoch: 13 May)

Event Time Altitude Azimuth Distance (km) Brightness Sun altitude
Rises 21:54:46 0° 339° (NNW) 3,193 12.7 -23.4°
Reaches altitude 10° 21:57:44 10° 356° (N) 2,270 11.4 -23.6°
Maximum altitude 22:01:32 20° 44° (NE) 1,672 10.0 -23.8°
Enters shadow 22:04:18 14° 83° (E) 2,015 10.0 -23.9°
